Shishmaref, AK

8:36 AM AKDT on May 22, 2018 (GMT -0800)
New Shishmaref

Weather History for PASH - June, 2013

Change the Weather History Date:

Tuesday, June 25, 2013

  Actual Average Record
Temperature  
Mean Temperature 37 °F -  
Max Temperature 39 °F 47 °F 57 °F (2011)
Min Temperature 35 °F 38 °F 33 °F (1999)
Degree Days  
Heating Degree Days 28    
Moisture  
Dew Point 36 °F    
Average Humidity 93    
Maximum Humidity 100    
Minimum Humidity 87    
Precipitation  
Precipitation 0.00 in - - ()
Sea Level Pressure  
Sea Level Pressure 29.92 in    
Wind  
Wind Speed 7 mph (WNW)    
Max Wind Speed 9 mph    
Max Gust Speed -    
Visibility 2 miles    
Events      
Averages and records for this station are not official NWS values.
T = Trace of Precipitation, MM = Missing Value Source: NWS Daily Summary

Daily Weather History Graph

Daily Weather History Graph

Search for Another Location

Airport or City:

Astronomy

Jun. 25, 2013 Rise Set
Actual Time 3:39 AM AKDT 2:34 AM AKDT
Civil Twilight Sun does not set Sun does not set
Nautical Twilight Sun does not set Sun does not set
Astronomical Twilight Sun does not set Sun does not set
Moon 1:31 AM AKDT (6/25) 8:57 AM AKDT (6/25)
Length of Visible Light 24h 00m
Length of Day
22h 55m
Waning Gibbous, 92% of the Moon is Illuminated
Jun 25
Waning Gibbous
Jun 29
Last Quarter
Jul 7
New
Jul 15
First Quarter
Jul 22
Full

Hourly Weather History & Observations

Time (AKDT) Temp. Windchill Dew Point Humidity Pressure Visibility Wind Dir Wind Speed Gust Speed Precip Events Conditions
12:16 AM 39.2 °F 34.2 °F 35.6 °F 87% 29.93 in 10.0 mi WNW 6.9 mph - N/A   Clear
12:36 AM 39.2 °F 33.6 °F 37.4 °F 93% 29.93 in 10.0 mi NW 8.1 mph - N/A   Clear
12:56 AM 39.2 °F 35.0 °F 37.4 °F 93% 29.93 in 10.0 mi WNW 5.8 mph - N/A   Clear
1:16 AM 39.2 °F 34.2 °F 37.4 °F 93% 29.94 in 10.0 mi NW 6.9 mph - N/A   Clear
1:36 AM 39.2 °F 35.0 °F 37.4 °F 93% 29.94 in 10.0 mi WNW 5.8 mph - N/A   Clear
1:56 AM 39.2 °F 35.0 °F 37.4 °F 93% 29.94 in 10.0 mi WNW 5.8 mph - N/A   Clear
2:16 AM 39.2 °F 34.2 °F 37.4 °F 93% 29.94 in 10.0 mi WNW 6.9 mph - N/A   Clear
2:36 AM 39.2 °F 34.2 °F 37.4 °F 93% 29.94 in 10.0 mi WNW 6.9 mph - N/A   Clear
2:56 AM 37.4 °F 32.8 °F 35.6 °F 93% 29.94 in 10.0 mi WNW 5.8 mph - N/A   Scattered Clouds
3:16 AM 37.4 °F 32.1 °F 35.6 °F 93% 29.94 in 0.2 mi WNW 6.9 mph - N/A   Overcast
3:36 AM 37.4 °F 32.8 °F 35.6 °F 93% 29.94 in 0.2 mi WNW 5.8 mph - N/A   Overcast
3:56 AM 37.4 °F 32.8 °F 35.6 °F 93% 29.93 in 0.5 mi WNW 5.8 mph - N/A   Overcast
4:16 AM 37.4 °F 31.4 °F 35.6 °F 93% 29.93 in 0.5 mi NW 8.1 mph - N/A   Overcast
4:36 AM 37.4 °F 32.8 °F 35.6 °F 93% 29.93 in 0.8 mi WNW 5.8 mph - N/A   Overcast
4:56 AM 37.4 °F 32.8 °F 35.6 °F 93% 29.94 in 1.0 mi West 5.8 mph - N/A   Overcast
5:16 AM 35.6 °F 29.9 °F 35.6 °F 100% 29.94 in 0.2 mi West 6.9 mph - N/A   Overcast
5:36 AM 35.6 °F 29.9 °F 33.8 °F 93% 29.94 in 0.2 mi West 6.9 mph - N/A   Overcast
5:56 AM 35.6 °F 29.9 °F 35.6 °F 100% 29.93 in 0.2 mi West 6.9 mph - N/A   Overcast
6:16 AM 35.6 °F 29.9 °F 33.8 °F 93% 29.93 in 1.0 mi West 6.9 mph - N/A   Overcast
6:36 AM 35.6 °F 29.9 °F 33.8 °F 93% 29.93 in 1.2 mi West 6.9 mph - N/A   Overcast
6:56 AM 35.6 °F 29.9 °F 33.8 °F 93% 29.92 in 1.0 mi WNW 6.9 mph - N/A   Overcast
7:16 AM 35.6 °F 29.9 °F 33.8 °F 93% 29.93 in 0.5 mi WNW 6.9 mph - N/A   Overcast
7:36 AM 35.6 °F 29.9 °F 33.8 °F 93% 29.93 in 0.5 mi West 6.9 mph - N/A   Overcast
7:56 AM 35.6 °F 29.9 °F 35.6 °F 100% 29.93 in 0.2 mi West 6.9 mph - N/A   Overcast
8:16 AM 35.6 °F 29.2 °F 33.8 °F 93% 29.93 in 0.2 mi West 8.1 mph - N/A   Overcast
8:36 AM 35.6 °F 29.2 °F 35.6 °F 100% 29.93 in 0.2 mi WNW 8.1 mph - N/A   Overcast
8:56 AM 35.6 °F 29.9 °F 35.6 °F 100% 29.93 in 0.2 mi West 6.9 mph - N/A   Overcast
9:16 AM 37.4 °F 32.8 °F 35.6 °F 93% 29.94 in 0.2 mi West 5.8 mph - N/A   Overcast
9:36 AM 37.4 °F 31.4 °F 35.6 °F 93% 29.93 in 0.2 mi West 8.1 mph - N/A   Overcast
9:56 AM 37.4 °F 32.1 °F 35.6 °F 93% 29.94 in 0.5 mi West 6.9 mph - N/A   Overcast
10:16 AM 37.4 °F 32.1 °F 35.6 °F 93% 29.93 in 0.2 mi West 6.9 mph - N/A   Overcast
10:36 AM 37.4 °F 32.1 °F 35.6 °F 93% 29.93 in 0.2 mi WNW 6.9 mph - N/A   Overcast
10:56 AM 37.4 °F 32.8 °F 35.6 °F 93% 29.93 in 0.2 mi WNW 5.8 mph - N/A   Overcast
11:16 AM 37.4 °F 32.8 °F 35.6 °F 93% 29.94 in 0.2 mi West 5.8 mph - N/A   Overcast
11:36 AM 37.4 °F 32.1 °F 35.6 °F 93% 29.93 in 0.2 mi WNW 6.9 mph - N/A   Overcast
11:56 AM 37.4 °F 30.8 °F 35.6 °F 93% 29.93 in 0.2 mi WNW 9.2 mph - N/A   Overcast
12:16 PM 39.2 °F 33.0 °F 37.4 °F 93% 29.93 in 0.2 mi NW 9.2 mph - N/A   Overcast
12:36 PM 39.2 °F 33.6 °F 37.4 °F 93% 29.93 in 0.2 mi NW 8.1 mph - N/A   Overcast
12:56 PM 39.2 °F 34.2 °F 37.4 °F 93% 29.93 in 0.2 mi NW 6.9 mph - N/A   Overcast
1:16 PM 39.2 °F 33.0 °F 37.4 °F 93% 29.93 in 0.5 mi NW 9.2 mph - N/A   Overcast
1:36 PM 39.2 °F 33.0 °F 37.4 °F 93% 29.93 in 1.0 mi NW 9.2 mph - N/A   Overcast
1:56 PM 39.2 °F 33.0 °F 37.4 °F 93% 29.92 in 0.2 mi NW 9.2 mph - N/A   Overcast
2:16 PM 39.2 °F 34.2 °F 37.4 °F 93% 29.92 in 0.5 mi NW 6.9 mph - N/A   Overcast
2:36 PM 39.2 °F 34.2 °F 37.4 °F 93% 29.92 in 0.2 mi NW 6.9 mph - N/A   Overcast
2:56 PM 39.2 °F 34.2 °F 37.4 °F 93% 29.92 in 0.5 mi NW 6.9 mph - N/A   Overcast
3:16 PM 39.2 °F 33.6 °F 37.4 °F 93% 29.92 in 0.2 mi NW 8.1 mph - N/A   Overcast
3:36 PM 39.2 °F 33.6 °F 37.4 °F 93% 29.92 in 0.2 mi NNW 8.1 mph - N/A   Overcast
3:56 PM 39.2 °F 33.6 °F 37.4 °F 93% 29.92 in 0.2 mi NW 8.1 mph - N/A   Overcast
4:16 PM 39.2 °F 33.6 °F 37.4 °F 93% 29.92 in 0.2 mi NW 8.1 mph - N/A   Overcast
4:36 PM 39.2 °F 34.2 °F 37.4 °F 93% 29.92 in 0.2 mi NW 6.9 mph - N/A   Overcast
4:56 PM 39.2 °F 34.2 °F 37.4 °F 93% 29.92 in 0.2 mi NW 6.9 mph - N/A   Overcast
5:16 PM 39.2 °F 34.2 °F 37.4 °F 93% 29.92 in 0.2 mi NW 6.9 mph - N/A   Overcast
5:36 PM 39.2 °F 35.0 °F 37.4 °F 93% 29.92 in 0.2 mi West 5.8 mph - N/A   Overcast
5:56 PM 39.2 °F 35.0 °F 37.4 °F 93% 29.91 in 0.2 mi WNW 5.8 mph - N/A   Overcast
6:16 PM 39.2 °F 34.2 °F 37.4 °F 93% 29.91 in 0.2 mi WNW 6.9 mph - N/A   Overcast
6:36 PM 39.2 °F 34.2 °F 37.4 °F 93% 29.91 in 0.2 mi NW 6.9 mph - N/A   Overcast
6:56 PM 39.2 °F 33.6 °F 37.4 °F 93% 29.90 in 0.5 mi NNW 8.1 mph - N/A   Overcast
7:16 PM 39.2 °F 34.2 °F 37.4 °F 93% 29.90 in 0.5 mi NW 6.9 mph - N/A   Overcast
7:36 PM 39.2 °F 35.9 °F 37.4 °F 93% 29.90 in 0.2 mi WNW 4.6 mph - N/A   Overcast
7:56 PM 39.2 °F 35.0 °F 37.4 °F 93% 29.90 in 0.2 mi West 5.8 mph - N/A   Overcast
8:16 PM 39.2 °F 35.0 °F 37.4 °F 93% 29.90 in 0.2 mi WNW 5.8 mph - N/A   Overcast
8:36 PM 37.4 °F 33.8 °F 37.4 °F 100% 29.90 in 0.2 mi WNW 4.6 mph - N/A   Overcast
8:56 PM 39.2 °F 35.9 °F 37.4 °F 93% 29.89 in 0.5 mi West 4.6 mph - N/A   Overcast
9:16 PM 39.2 °F 35.9 °F 37.4 °F 93% 29.89 in 0.2 mi West 4.6 mph - N/A   Overcast
9:36 PM 39.2 °F 35.9 °F 37.4 °F 93% 29.89 in 1.8 mi WNW 4.6 mph - N/A   Overcast
9:56 PM 39.2 °F 35.9 °F 37.4 °F 93% 29.88 in 1.2 mi WNW 4.6 mph - N/A   Overcast
10:16 PM 39.2 °F 37.0 °F 37.4 °F 93% 29.88 in 0.5 mi West 3.5 mph - N/A   Overcast
10:36 PM 39.2 °F 34.2 °F 37.4 °F 93% 29.88 in 0.5 mi West 6.9 mph - N/A   Overcast
10:56 PM 39.2 °F 35.0 °F 37.4 °F 93% 29.88 in 0.2 mi West 5.8 mph - N/A   Overcast
11:16 PM 39.2 °F 35.0 °F 37.4 °F 93% 29.88 in 2.0 mi West 5.8 mph - N/A   Overcast
11:36 PM 39.2 °F 37.0 °F 37.4 °F 93% 29.88 in 1.0 mi West 3.5 mph - N/A   Overcast
11:56 PM 39.2 °F 35.9 °F 37.4 °F 93% 29.88 in 0.8 mi West 4.6 mph - N/A   Overcast